OBJECT K, 63219

Orbit data source: Space-Track

You're viewing an Uncataloged Satellite

Recently launched and/or uncataloged satellites may have evolving metadata. Metadata may include but not limited to: Owner, Maufacturer, Bus, Motor, and Mission.

OBJECT K, 63219 is a satellite in SSO that was launched on Sat, 15 Mar 2025 UTC via an FALCON 9 launch vehicle from the Air Force Western Test Range (AFWTR). Unknown objects in Earth's orbit typically refer to objects detected orbiting the Earth but have not yet been identified or cataloged. These objects could be anything from previously untracked satellites, spent rocket stages, debris from satellite collisions, or even natural meteoroids temporarily captured by Earth's gravity.

Loading next visibility...
Identifier
63219, 2025-052K
Orbit
SSO
Country
Flag of TBDTBD
Related business
Flag of ILTel Aviv University (IL)
Manufacturer
ISA/TAU
Mission
Operational Commercial Technology
Bus & Motor
CUBESAT 1U, Unknown motor
Mass
1 kg wet, 1 kg dry
Launch date (UTC)
2025-03-15 (1 year ago)
Launch vehicle
FALCON 9
Launch site
Air Force Western Test Range (AFWTR)
Object type
Unknown
Shape & HBR
Box, 1.1 m
Radar Cross Section
0.054 m², Small (<0.1 m²)

Expand to show TLE details & history
Last TLE update: 17 hours ago

TLE from 17 hours ago
0 OBJECT K
1 63219U 25052K   26144.68749553  .00014418  00000-0  45480-3 0  9991
2 63219  97.3903  40.6449 0002628 158.7421 201.3931 15.32970600 66494
Epoch: 2026-05-24T16:29Z
TLE epoch observation values (Epoch: 2026-05-24T16:29:59.613Z)
Latitude
-0.00003°
Longitude
-89.13954°
Altitude
471.739 km
Speed
7.629 km/s
True Right ascension
02h 42m 34s
True Declination
0° 00' 00"
Sunlit
Object was in daylight at epoch
Visualization orbit readout
Latitude
Unknown
Longitude
Unknown
Altitude
Unknown
Speed
Unknown
Apparent Right ascension
Unknown
Apparent Declination
Unknown
Sunlit
N/A
Visualization observer readout
Local Sidereal Time
18:32:03
Azimuth
Unknown
Elevation
Unknown
Doppler factor
Unknown
Orbital elements
Apogee altitude
465.701 km
Perigee altitude
462.105 km
Semi-major axis
6,842.04 km
Eccentricity
0.00026
Inclination
97.3903°
RAAN
40.6449°
Arg. of periapsis
158.7421°
True anomaly
201.38212°
Mean anomaly
201.3931°
Eccentric anomaly
201.38761°
Mean motion
3.83499 °/min
Orbital period
93.87 mins
BSTAR
0.0004548
Loading maneuver chart data...
Computing Atmospheric mass density...
Loading historical data...
Loading historical data...
Loading historical data...
Loading historical data...
Loading historical data...
Loading historical data...
Loading historical data...

Documentation

Showing up to 5 results
|